Location: Lafig�re
(44.4503°N, 4.0357°E)
Time: 15:43:33
(UTC+00:00)

Transit 2A Rocket - Pass Details

Date: 24 January 2021
Orbit: 594 x 908 km, 66.7° (Epoch: 06 March)

Event Time Altitude Azimuth Distance (km) Brightness Sun altitude
Rises 21:19:24 0° 319° (NW) 2,895 - -48.7°
Reaches altitude 10° 21:21:53 10° 309° (NW) 1,959 - -49.1°
Maximum altitude 21:25:43 31° 247° (WSW) 1,054 - -49.7°
Drops below altitude 10° 21:29:30 10° 185° (S) 1,923 - -50.3°
Sets 21:31:55 0° 175° (S) 2,831 - -50.7°
